Timeline UpdatesTrip UpdatesNews PostsPvt PostsTravel TipsAdmin PostsConv PostsFollowed PostsChat RequestsBlog PostsPNR Posts

Disclaimer
Search
 
 
Thu Jul 24, 2014 01:39:00 ISTHomeTrainsΣChainsAtlasPNRForumGalleryNewsFAQTripsMembersLoginFeedback
No Recent News for this Train
Other Trains in the News **new
Latest...
ECoR TO CANCEL LOCAL PASSENGER TRAINS IN VIEW OF EXPECTED CYCLONE o­n 12th October 2013. The following trains are: 58417/58418 Puri-Gunupur-Puri passenger
Sat Oct 12, 2013 (09:32AM)
⇐ Return Journey: Train# 58418

58417/Puri Gunupur Passenger (UnReserved)

Aug 04 2013 (5:19PM)
Change Departure Station:
Change Arrival Station:
Post a Train Travel TipPost a Train Travel Tip **new
Post a Comment/Question/Picture/VideoPost a Comment/Question/Picture/Video
Pantry/Catering
✕ NO Pantry Car
✕ NO Catering
Loco/Rake Reversals
KUR/Khurda Road Junction (7);
RSA - Rake Sharing
Rake/Coach Composition
This train will run with 08 coaches i.e. Two Guard cum luggage vans, 05 General Second Class coaches and One Parcel Van.
Loco
News    PNR    Forum    Time-Table    Availability    Fare Chart    Map    Arr/Dep History    Trips    Gallery    ΣChains    X/O    Timeline    
Travel Time: 3h 45m    15 halts    Distance: 116 km    Avg Speed: 30 km/hr
Type: Passenger
Zone: ECoR/East Coast
Departs @ 16:00
Platform# 3
SMTWTFS
Palasa/PSA 
Arrives @ 19:45
Platform# ???
SMTWTFS
Gunupur/GNPR 

15 halts. 15 intermediate Stations between Palasa and Gunupur

Show ALL intermediate Stations  Show Old Time-Table

#CodeStation NameX/OArrivesAvgDepartsAvgHaltPFDay#KmSpeedElevZoneAddress
1PURIPuri (5)  -08:30---1-265.43712mECoRPuri, Odisha
2MLTMalatipatpur (1)X  08:42-08:44-2m11-258.04615mECoRPuri, Odisha
3JKDPJankidaipur  08:48-08:49-1m--1-255.06013mECoRChandanpur, Odisha
4SILSakhi Gopal (3)X  08:55-08:56-1m--1-248.96710mECoRPuri, Odisha
5BRSTBir Purushottampur  09:01-09:02-1m--1-243.44512mECoRSatasankha, Odisha
6JPRDJenapur Road  09:07-09:08-1m--1-239.73610mECoRKhordha, Odisha
7DEGDelang  09:13-09:14-1m--1-236.7449mECoRKhordha, Odisha
8KASRKanas RoadX  09:19-09:20-1m--1-233.0429mECoRKhordha, Odisha
9MWQMotari Halt  09:25-09:26-1m--1-229.54612mECoRMotari, Odisha
10HPGMHaripur GramX  09:33-09:34-1m--1-224.11022mECoRKhordha, Odisha
11KURKhurda Road Junction (7)X09:50-10:10-20m--1-221.55325mECoRKhordha, Odisha
12ARGLArgul P.H.  10:16-10:17-1m--1-216.24024mECoRKhordha, Odisha
13KPXRKaipadar RoadX  10:23-10:24-1m--1-212.26822mECoRKaipada Road, Odisha
14DLMHDhaulimuhanX  10:28-10:29-1m--1-207.74621mECoRKhordha, Odisha
15TAPTapangX  10:34-10:35-1m--1-203.87215mECoRKhordha, Odisha
16GLBAGolabaiO  10:39-10:40-1m--1-199.04813mECoRKhordha, Odisha
17NKPNirakarpurX  10:45-10:46-1m--1-195.17121mECoRNirakarpur, Odisha
18BSDPBhusandpur  10:52-10:53-1m--1-187.96620mECoRBhushandapur, Odisha
19MKTPMuketashwar  10:58-10:59-1m--1-182.45213mECoRKhordha, Odisha
20KAPGKalupara GhatX  11:04-11:05-1m--1-178.16710mECoRChandeswar, Odisha
21KUUKuhuri  11:11-11:12-1m--1-171.46826mECoRKhordha, Odisha
22GNGDGangadharpur  11:19-11:20-1m--1-163.46222mECoRKhordha, Odisha
23SLZSolari  11:25-11:26-1m--1-158.25218mECoRSolari, Odisha
24BALUBalugaon (3)X  11:35-11:40-5m--1-150.47211mECoR752030, Odisha
25CLKAChilka  11:46-11:47-1m--1-143.27725mECoRBarkul, Odisha
26KLJIKalijai  11:51-11:52-1m--1-138.05811mECoRGarh, Odisha
27KITKhallikot (3)X  11:57-11:58-1m--1-133.27513mECoRKhallikot, Odisha
28RBARambha  12:07-12:08-1m--1-122.07414mECoRGanjam District, Odisha
29HMAHumma  12:17-12:18-1m--1-110.97519mECoRGanjam District, Odisha
30GAMGanjam  12:23-12:24-1m--1-104.7608mECoRGanjam, Odisha
31CAPCChatrapur Court (2)  12:32-12:33-1m--1-96.71432mECoRChatrapur, Odisha
32CAPChatrapurX  12:37-12:42-5m--1-95.83736mECoRChatrapur, Odisha
33NRSPNarasimhapuraX  12:48-12:49-1m--1-92.110850mECoRGanjam, Odisha
34JNPJagan Nathapur  12:54-12:55-1m--1-83.15229mECoRBerhampur, Odisha
35BAMBrahmapur (3)  13:05-13:15-10m21-74.47127mECoRBerhampur, Odisha
36GTAGolanthra  13:24-13:25-1m--1-63.75328mECoRGanjam, Odisha
37SLRDSurla Road  13:31-13:33-2m--1-58.36318mECoRGanjam, Odisha
38IPMIchchapuram  13:41-13:42-1m--1-49.97921mECoRIchchapuram, Andhra Pradesh
39JPIJhadupudi  13:51-13:52-1m--1-38.17538mECoRSrikakulam, Andhra Pradesh
40SPTSompeta (4)X  13:57-13:58-1m--1-31.96348mECoRKanchili, Andhra Pradesh
41BAVBaruva  14:07-14:08-1m--1-22.58117mECoRSrikakulam, Andhra Pradesh
42MMSMandasa Road  14:15-14:16-1m--1-13.15638mECoRSrikakulam, Andhra Pradesh
43SUDVSummadeviX  14:23-14:24-1m--1-6.6658mECoRSummadevi, Andhra Pradesh
44PSA»Palasa (3)»O  15:25-16:00-35m310.06131mECoRKasibugga, Andhra Pradesh
45PUNPundiX  16:12-16:14-2m--112.25438mECoRSrikakulam, Andhra Pradesh
46RMZRouthpuram HaltX  16:21-16:22-1m--118.63312mECoRSrikakulam, Andhra Pradesh
47NWPNaupada Junction  16:35-16:45-10m--125.83913mECoRNuapada . ph.no. 08945-249728, Andhra Pradesh
48TEKTekkali Halt  16:55-16:56-1m--132.33436mECoRTekkali, Andhra Pradesh
49PDSNPeddasana  17:05-17:06-1m--137.44226mECoRNational Highway 5, Andhra Pradesh
50TMBTemburu  17:19-17:20-1m--146.53276mECoRParalakhemundi, Andhra Pradesh
51GVAGanguwada  17:28-17:29-1m--150.84278mECoRGanguwada, Andhra Pradesh
52PHMPatapatnam  17:43-17:44-1m--160.61668mECoRSrikakulam District, Andhra Pradesh
53PLHParlakhemundi (1)  18:00-18:02-2m1165.03760mECoRParalakhemundi, Odisha
54SPRMSitapuram Halt  18:22-18:23-1m--177.53258mECoRParalakhemundi, Odisha
55HBFHadobhangi Halt  18:31-18:32-1m--181.83968mECoRParalakhemundi, Odisha
56KNGRKashinagar Halt  18:45-18:46-1m--190.23762mECoRKashinagar, Odisha
57LRILihuri Halt  18:57-18:58-1m--197.03969mECoRAcross River Vamsadhara, Odisha
58BSDRBansadhara Halt  19:09-19:10-1m--1104.13678mECoRBansadhara Halt Railway Station, Odisha
59PLSGPalasingi  19:19-19:20-1m--1109.41587mECoRDistt Gajapati, Odisha
60GNPR•Gunupur•  19:45----1115.8-92mECoRGunupur, Odisha
Scroll to Top
Scroll to Bottom